Regional Weather Roundup
Issued by NWS

Home | Current Version | Previous Version | Text Only | Print | Product List | Glossary Off
Versions: 1 2 3 4 5 6 7 8 9 10 11 12 13 14 15 16 17 18 19 20 21 22 23 24 25 26 27 28 29 30 31 32 33 34 35 36 37 38 39 40 41 42 43 44 45 46 47 48 49 50

898
ASUS43 KMPX 182310
RWRMN
WEATHER ROUNDUP FOR MINNESOTA
NATIONAL WEATHER SERVICE TWIN CITIES/CHANHASSEN MN
600 PM CDT SUN AUG 18 2019


NOTE: "FAIR" INDICATES FEW OR NO CLOUDS BELOW 12,000 FEET WITH NO
SIGNIFICANT WEATHER AND/OR OBSTRUCTIONS TO VISIBILITY. N/A MEANS
CURRENT SKY AND/OR WEATHER CONDITIONS ARE NOT AVAILABLE.

MNZ060>063-068>070-190000-
   Twin Cities Metro

CITY           SKY/WX    TMP DP  RH WIND       PRES   REMARKS
TWIN CITIES    FAIR      74  50  42 W10       29.86R
ST PAUL        FAIR      73  51  46 W10       29.86R
CRYSTAL        FAIR      73  48  41 NW10      29.85R
BLAINE         MOSUNNY   73  48  40 NW13G18   29.85S
EDEN PRAIRIE   FAIR      74  51  44 NW9       29.86R
SOUTH ST PAUL  FAIR      74  49  40 W7        29.86R
LAKE ELMO        N/A     72  52  49 CALM      29.87R
$$
MNZ001>005-007-008-013>017-022>024-027-028-190000-
   Northwest Minnesota

CITY           SKY/WX    TMP DP  RH WIND       PRES   REMARKS
BEMIDJI        FAIR      69  44  40 W17       29.83S
HALLOCK        SUNNY     75  39  27 W15G22    29.75S
ROSEAU         FAIR      73  46  38 W10G20    29.75R
WARROAD          N/A     73  46  38 W16G23    29.74S
THIEF RVR FALL SUNNY     72  44  36 W14G24    29.81S
CROOKSTON      SUNNY     73  43  33 W12       29.80F
FOSSTON        SUNNY     72  46  40 W12G20    29.83F
DETROIT LAKES  FAIR      70  43  37 W9        29.87F
MOORHEAD       SUNNY     72  46  40 W8        29.85S
PARK RAPIDS    FAIR      70  46  42 W10       29.85F
$$
MNZ006-009>011-018-025>026-190000-
   North Central Minnesota

CITY           SKY/WX    TMP DP  RH WIND       PRES   REMARKS
BAUDETTE       FAIR      72  41  32 W16G25    29.75S
FLAG ISLAND      N/A     72  39  30 W13G26    29.70S
INTL FALLS     FAIR      70  44  39 W6G17     29.74S
WASKISH        FAIR      70  48  46 W15G22    29.78F
BIG FORK       FAIR      70  45  40 W6        29.85S
LONGVILLE      FAIR      68  46  45 W10G18    29.84S
GRAND RAPIDS   PTSUNNY   68  46  45 NW9       29.85R
CRANE LAKE     FAIR      68  43  40 SW6       29.79R
ORR            FAIR      70  39  32 W8        29.77R
COOK           FAIR      70  43  37 W15       29.79R
WALKER         FAIR      68  47  46 W10G17    29.83F
$$
MNZ012-019>021-037-190000-
   Northeast Minnesota

CITY           SKY/WX    TMP DP  RH WIND       PRES   REMARKS
DULUTH         FAIR      71  43  36 NW12G26   29.82R
ELY            FAIR      64  39  39 W8G16     29.78S
HIBBING        FAIR      66  42  41 W10G18    29.82R
EVELETH        FAIR      67  46  46 W10       29.83R
DULUTH HARBOR    N/A     70  30  23 W14       29.80R
TWO HARBORS    FAIR      70  46  43 W7        29.79R
SILVER BAY     FAIR      70  41  35 W6        29.77R
GRAND MARAIS     N/A     71  51  49 W9        29.72R
G MARAIS ARPRT FAIR      64  45  48 W10       29.76R
$$
MNZ029>031-032-039>041-046>048-054>057-064-190000-
   West Central Minnesota

CITY           SKY/WX    TMP DP  RH WIND       PRES   REMARKS
FERGUS FALLS   FAIR      70  46  43 W10       29.87S
WHEATON        SUNNY     72  46  40 W7        29.89S
MORRIS         SUNNY     70  46  43 NW7       29.83S
ALEXANDRIA     FAIR      72  47  40 W10G21    29.89S
ELBOW LAKE     FAIR      69  47  45 NW8       29.89R
WADENA         FAIR      68  45  42 W8        29.87R
GLENWOOD       FAIR      70  48  46 NW10      29.89S
APPLETON       SUNNY     73  46  38 CALM      29.88S
BENSON         SUNNY     72  48  43 N10       29.89S
ORTONVILLE     SUNNY     72  46  40 NW3       29.89R
MADISON        SUNNY     73  50  43 CALM      29.89S
WILLMAR        FAIR      72  48  43 NW10      29.92S
$$
MNZ033>034-036-042>043-049>051-058-059-190000-
   Central Minnesota

CITY           SKY/WX    TMP DP  RH WIND       PRES   REMARKS
ST CLOUD       FAIR      71  46  40 W13       29.86R
SAUK CENTRE    FAIR      69  48  46 NW14      29.89R
PAYNESVILLE    FAIR      70  52  52 NW8       29.89S
PINE RIVER     FAIR      66  45  45 NW7       29.88S
BRAINERD       FAIR      72  43  35 NW9       29.85S
STAPLES        FAIR      70  39  32 NW12      29.86S
LONG PRAIRIE   FAIR      70  46  43 W12       29.88S
LITTLE FALLS   FAIR      70  46  43 W9        29.87R
CAMP RIPLEY    FAIR      70  47  44 W15       29.87R
LITCHFIELD     FAIR      73  48  40 NW8       29.89S
BUFFALO        FAIR      71  46  39 MISG      29.88R
MAPLE LAKE       N/A     72  51  47 CALM      29.88S
HUTCHINSON     SUNNY     71  51  49 NW8       29.90S
$$
MNZ037-044-045-052-053-190000-
   East Central Minnesota

CITY           SKY/WX    TMP DP  RH WIND       PRES   REMARKS
PRINCETON      FAIR      73  46  38 W10G17    29.86S
MORA           FAIR      70  46  43 NW10      29.87R
CAMBRIDGE      FAIR      77  54  44 W10       29.86R
RUSH CITY      FAIR      70  50  48 W3        29.85S
MOOSE LAKE     FAIR      70  43  37 NW6       29.83R
HINCKLEY       FAIR      72  48  43 W8        29.85R
CLOQUET        FAIR      70  41  35 W10       29.83R
MCGREGOR       FAIR      70  45  40 NW9G17    29.85R
$$
MNZ071>073-080-081-089-090-097-098-190000-
   Southwest Minnesota

CITY           SKY/WX    TMP DP  RH WIND       PRES   REMARKS
MONTEVIDEO     SUNNY     70  45  40 NW3       29.89F
GRANITE FALLS  SUNNY     72  51  47 NW6       29.91S
CANBY          SUNNY     74  53  47 N6        29.90
MARSHALL       SUNNY     71  54  54 NW6       29.90S
REDWOOD FALLS  SUNNY     72  50  45 NW8       29.89S
OLIVIA         SUNNY     70  48  46 NW7       29.89S
PIPESTONE      SUNNY     72  54  53 W5        29.91S
WINDOM         SUNNY     70  55  60 N9        29.90S
WORTHINGTON    SUNNY     72  57  59 N7        29.91S
JACKSON        SUNNY     70  55  60 N3        29.91S
TRACY          SUNNY    N/A N/A N/A NE3       29.90S
SLAYTON        SUNNY     71  53  52 NW6       29.92
$$
MNZ065>067-074>077-082>085-091>093-190000-
   South Central Minnesota

CITY           SKY/WX    TMP DP  RH WIND       PRES   REMARKS
MANKATO        FAIR      71  53  52 NW14      29.90R
NEW ULM        SUNNY     72  52  49 NW8       29.90R
FAIRMONT       SUNNY     71  56  58 NW8       29.91R
GLENCOE        FAIR      72  50  46 NW8       29.88S
OWATONNA       FAIR      72  57  60 NW12      29.89R
WASECA         FAIR      72  55  56 NW9       29.91R
ALBERT LEA     FAIR      70  57  64 N7        29.90R
$$
MNZ078>079-086>088-094>096-190000-
   Southeast Minnesota

CITY           SKY/WX    TMP DP  RH WIND       PRES   REMARKS
ROCHESTER      FAIR      71  56  58 NW10      29.89R
RED WING       FAIR      75  41  29 NW9       29.85S
STANTON        FAIR      73  56  55 NW10      29.86S
DODGE CENTER   FAIR      72  54  53 NW13      29.89S
WINONA         FAIR      75  59  57 NW8       29.85R
AUSTIN         FAIR      75  52  43 NW14      29.89S
PRESTON        FAIR      72  59  63 NW8       29.89R
$$
ABBREVIATIONS USED IN REMARKS
   TC - TEMPERATURES IN CELSIUS
  WCI - WIND CHILL INDEX
   HX - HEAT INDEX
  VSB - VISIBILITY
$$




USA.gov is the U.S. government's official web portal to all federal, state and local government web resources and services.